Regional Weather Roundup
Issued by NWS

Home | Current Version | Previous Version | Text Only | Print | Product List | Glossary Off
Versions: 1 2 3 4 5 6 7 8 9 10 11 12 13 14 15 16 17 18 19 20 21 22 23 24 25 26 27 28 29 30 31 32 33 34 35 36 37 38 39 40 41 42 43 44 45 46 47 48 49 50

000
ASUS45 KCYS 250310
RWRWY

WYOMING REGIONAL WEATHER ROUNDUP
NATIONAL WEATHER SERVICE CHEYENNE WY
900 PM MDT WED AUG 24 2016

NOTE:  "FAIR" INDICATES FEW OR NO CLOUDS BELOW 12,000 FEET
WITH NO SIGNIFICANT WEATHER AND/OR OBSTRUCTIONS TO VISIBILITY.

WYZ001-250400-
YELLOWSTONE NATIONAL PARK

CITY           SKY/WX    TMP DP  RH WIND       PRES   REMARKS
LK YELLOWSTONE   N/A     38  37  97 CALM      30.42R
W YELLOWSTONE  NOT AVBL

$$
WYZ002>013-054>058-071-098>099-250400-
NORTHERN WYOMING

CITY           SKY/WX    TMP DP  RH WIND       PRES   REMARKS
JACKSON        FAIR      57  30  35 N15G21    30.28
CODY           MOCLDY    52  45  76 CALM      30.35S
GREYBULL       FAIR      62  42  47 NW17G29   30.26R
WORLAND        FAIR      60  43  53 NW24G35   30.25R
SHERIDAN       CLOUDY    60  41  49 N12       30.31R
BUFFALO        CLOUDY    55  44  66 NW14      30.34R
GILLETTE       CLOUDY    60  43  53 N18       30.28R
HULETT         CLOUDY    61  39  44 N6        30.30R
NEWCASTLE      FAIR      63  37  39 N14G20    30.23R

$$
WYZ014>020-022>026-101>103-250400-
CENTRAL WYOMING

CITY           SKY/WX    TMP DP  RH WIND       PRES   REMARKS
BIG PINEY      FAIR      54  18  24 N10       30.24R
PINEDALE       CLOUDY    59  32  36 CALM      30.27R
DUBOIS         CLOUDY    50  34  53 E15       30.33R THUNDER
LANDER         CLOUDY    59  39  47 N13       30.29R
RIVERTON       CLOUDY    56  41  57 N22       30.28R
CASPER         MOCLDY    59  40  49 N22G29    30.26R
DOUGLAS        FAIR      58  45  62 E9        30.25R

$$
WYZ021-027>030-104>119-250400-
SOUTHERN WYOMING

CITY           SKY/WX    TMP DP  RH WIND       PRES   REMARKS
EVANSTON       FAIR      57  16  20 W9        30.27R
FORT BRIDGER   FAIR      58  18  21 W7        30.29R
ROCK SPRINGS   NOT AVBL
DIXON          FAIR      61  32  33 SE3       30.19R
RAWLINS        FAIR      56  39  53 E9        30.24R
SARATOGA       FAIR      54  43  66 SW3       30.25R
LARAMIE        FAIR      50  42  74 SE9       30.31R
CHEYENNE       FAIR      56  47  71 S3        30.27R
TORRINGTON     FAIR      57  46  66 NE20G29   30.20R
PINE BLUFFS    CLOUDY    59  46  63 CALM      30.26R

$$



USA.gov is the U.S. government's official web portal to all federal, state and local government web resources and services.